Flag for Germany Weather past 2 weeks in Zwickau, Saxony, Germany

Now
73 °F

Passing clouds.


Feels Like: 76 °F
Forecast: 58 / 81 °F
Wind: 5 mph from Northwest

Location: Altenburg Nobitz

Current Time: Jul 26, 2014 at 9:20:10 PM

Latest Report: Jul 26, 2014 at 6:20 PM


Visibility: N/A

Pressure: 29.89 "Hg

Humidity: 69%

Dew point: 63 °F

Location of ZwickauLocation

Historic Weather in Zwickau — Graph

°F

Zwickau temperature yesterday

Maximum temperature yesterday: 72 °F (at 5:20 PM)
Minimum temperature yesterday: 61 °F (at 8:20 AM)
Average temperature yesterday: 67 °F

Past Weeks' High & Low Weather Summary

 TemperatureHumidityPressure
High91 °F (Jul 20, 1:50 PM)100% (Jul 25, 8:20 AM)30.21 "Hg (Jul 25, 8:20 AM)
Low57 °F (Jul 12, 9:20 AM)26% (Jul 20, 1:50 PM)29.77 "Hg (Jul 13, 1:50 PM)
Average75 °F59%29.98 "Hg
* Reported Jul 11 6:20 PM — Jul 26 6:20 PM, Zwickau, Weather by CustomWeather, © 2014

Note: Actual official high and low records may vary slightly from our data, if they occured in-between our weather recording intervals... More about our weather records

Advertising

Zwickau weather history for previous 24 hours

 ConditionsComfort  
Time TempWeatherWind HumidityBarometerVisibility
6:20 PM
Jul 26
73 °FPassing clouds.5 mph69%29.89 "HgN/A
5:50 PM73 °FPartly sunny.9 mph69%29.92 "HgN/A
5:20 PM70 °FPartly sunny.5 mph78%29.92 "HgN/A
4:50 PM70 °FPartly sunny.5 mph78%29.92 "HgN/A
4:20 PM68 °FPartly sunny.3 mph78%29.92 "HgN/A
3:50 PM70 °FThunderstorms. Partly sunny.2 mph78%29.92 "Hg4 mi
3:20 PM73 °FThunderstorms. Partly sunny.8 mph65%29.89 "Hg4 mi
2:50 PM79 °FPassing clouds.5 mph54%29.89 "HgN/A
2:20 PM81 °FPassing clouds.8 mph48%29.89 "HgN/A
1:50 PM81 °FPassing clouds.7 mph48%29.92 "HgN/A
1:20 PM82 °FPassing clouds.6 mph48%29.92 "HgN/A
12:50 PM81 °FPassing clouds.7 mph51%29.92 "HgN/A
12:20 PM81 °FPassing clouds.5 mph54%29.92 "HgN/A
11:50 AM77 °FPassing clouds.2 mph57%29.92 "HgN/A
11:20 AM75 °FPassing clouds.3 mph65%29.95 "HgN/A
10:50 AM73 °FSunny.2 mph69%29.95 "Hg10 mi
10:20 AM72 °FPassing clouds.5 mph73%29.95 "HgN/A
9:50 AM68 °FPassing clouds.3 mph83%29.95 "HgN/A
9:20 AM66 °FSunny.2 mph88%29.95 "Hg10 mi
Weather by CustomWeather, © 2014

See weather overviewHow to use our weather pages